Tracking 19219 objects as of 20-Jul-2018
HD Live streaming from Space Station
objects crossing your sky now

INTELSAT 505

Track INTELSAT 505 now!
INTELSAT 505 is classified as:


NORAD ID: 13595
Int'l Code: 1982-097A
Perigee: 36,237.2 km
Apogee: 36,413.2 km
Inclination: 15.2 °
Period: 1,463.3 minutes
Semi major axis: 42696 km
RCS: 0.1428 m2 (medium)
Launch date: September 28, 1982
Source: International Telecommunications Satellite Organization (ITSO)
Launch site: AIR FORCE EASTERN TEST RANGE (AFETR)
aabbcc
Your satellite tracking list
Your tracking list is empty




NASA's NSSDC Master Catalog

Two Line Element Set (TLE):
1 13595U 82097A   18200.50481976 -.00000028 +00000-0 +00000-0 0  9991
2 13595 015.2182 354.5067 0020610 336.3099 205.0497 00.98405510099597
Source of the keplerian elements: AFSPC